sat.trackr.live / text

‹ back to catalog

STARLINK-5296

NORAD 55312 · 2023-010AV

PAYLOAD ACTIVE UNKNOWN

§ Identity

Operator
Country
US
Launch date
2023-01-19
Launch site
AFWTR
Launch vehicle
Mass (kg)
RCS (m²)

Purposes: comms

External: N2YO · Heavens-Above · Gunter

§ Orbital elements

Epoch: 2026-09-20T22:00:03.000096Z

Period
95.72 min
Inclination
70.0011°
Eccentricity
0.0002956
Mean motion
15.04374451 rev/d
Perigee alt
551.4 km
Apogee alt
555.5 km
Semi-major
6,931.6 km
B*
3.9847e-3
RAAN
231.9945°
Arg perigee
254.9310°
Mean anomaly
271.7440°
Rev number
576

§ Raw data

STARLINK-52961 55312U 23010AV  26263.91670139  .00056068  00000+0  39847-2 0  99942 55312  70.0011 231.9945 0002956 254.9310 271.7440 15.04374451  5763

JSON: /api/v1/satellites/55312 · /tle

For live sub-satellite position, see the globe view (requires WebGL).

§ Visibility from observer

Set your observer location to see the next 7 days of passes ≥ 10°. The values pass through the URL so the page stays shareable.

No JS? Fill the form by hand. The geolocation button needs JavaScript.